Regional Weather Roundup
Issued by NWS Wakefield, VA

Home | Current Version | Previous Version | Text Only | Print | Product List | Glossary Off
Versions: 1 2 3 4 5 6 7 8 9 10 11 12 13 14 15 16 17 18 19 20 21 22 23 24 25 26 27 28 29 30 31 32 33 34 35 36 37 38 39 40 41 42 43 44 45 46 47 48 49 50

988
ASUS41 KAKQ 222114
RWRAKQ

REGIONAL WEATHER ROUNDUP
NATIONAL WEATHER SERVICE WAKEFIELD VA
400 PM EST WED FEB 22 2017

Note: "fair" indicates few or no clouds below 12,000 feet with no
significant weather and/or obstructions to visibility. * = Denotes
station may not report precipitation (e.g., rain,snow,etc.),
thunder or fog.

VAZ042-051-052>054-056-222200-
NORTHERN VIRGINIA

CITY           SKY/WX    TMP DP  RH WIND       PRES   REMARKS
WASH NATIONAL  CLOUDY    61  48  62 S7        29.92F
DULLES         CLOUDY    64  47  53 S7        29.90F
FORT BELVOIR   MOSUNNY   62  48  60 S6        29.91F
QUANTICO       CLOUDY    57  49  74 SW6       29.92F
FREDERICKSBRG* CLOUDY    63  53  69 SW10      29.91F
STAFFORD*      CLOUDY    63  51  64 S8        29.95F
WARRENTON      MOSUNNY   65  46  50 S6        29.90F
CULPEPER*      MOSUNNY   64  51  62 S6        29.91F
MANASSAS*      MOSUNNY   64  48  56 S8        29.91S
LEESBURG*      CLOUDY    64  50  59 MISG      29.91S
WINCHESTER     MOSUNNY   64  45  48 SE6       29.88S
FRONT ROYAL*   PTCLDY    66  46  48 SW6       29.88S
LURAY*         CLOUDY    63  52  67 SW9       29.89S
$$

VAZ048-049-060>072-079>083-222200-
CENTRAL AND SOUTH CENTRAL VIRGINIA

CITY           SKY/WX    TMP DP  RH WIND       PRES   REMARKS
RICHMOND       LGT RAIN  54  54 100 S6        29.95F FOG
CHESTERFIELD*  MOCLDY    55  39  54 S6        29.97F
PETERSBURG*    LGT RAIN  55  52  90 CALM      29.97F
HANOVER        CLOUDY    57  52  83 S8        29.96S
TAPPAHANNOCK*  CLOUDY    59  53  81 S7        29.95F
QUINTON*       CLOUDY    55  55 100 MISG      29.95F FOG
CHARLOTTSVILLE CLOUDY    63  51  65 S9        29.90F
GORDONSVILLE*  PTCLDY    61  52  73 SW7       29.91S
ORANGE*        CLOUDY    61  50  67 S6        29.92F
LOUISA*        CLOUDY    63  55  77 SW3       29.91F
BUMPASS*       FAIR      58  53  82 SW8G18    29.92F
FARMVILLE*     LGT RAIN  57  56  96 S5        29.94F
CREWE*         CLOUDY    55  55 100 CALM      29.95F
FORT PICKETT*  CLOUDY    55  52  88 SE3       29.96S
CHASE CITY*    CLOUDY    55  54  94 CALM      29.96S
CLARKSVILLE*   CLOUDY    55  55 100 CALM      29.95F
SOUTH HILL*    CLOUDY    58  52  81 CALM      30.01S
LAWRENCEVILLE* CLOUDY    60  52  75 MISG      29.95F
EMPORIA*       CLOUDY    59  50  72 CALM      29.97S
$$

VAZ088>098-222200-
SOUTHEAST VIRGINIA

CITY           SKY/WX    TMP DP  RH WIND       PRES   REMARKS
NORFOLK        CLOUDY    63  51  65 N3        29.96R
VIRGINIA BEACH LGT RAIN  64  48  56 CALM      29.95S
NORFOLK NAVAL  CLOUDY    61  51  70 CALM      29.97S
WEST POINT*    CLOUDY    57  55  92 CALM      29.98S
SALUDA*        CLOUDY    56  56  99 CALM      29.96S
NEWPORT NEWS   LGT RAIN  59  52  77 NW5       29.97S
LANGLEY AFB    LGT RAIN  60  55  86 NW3       29.96R
FORT EUSTIS    LGT RAIN  57  51  80 CALM      29.95R
WILLIAMSBURG*  CLOUDY    59  54  82 CALM      29.98R
HR EXEC AP*    CLOUDY    63  52  67 CALM      29.94S
FRANKLIN*      CLOUDY    60  52  74 CALM      29.96F
US460-WAKEFLD  LGT RAIN  57  54  89 CALM      29.97S
$$

VAZ020-022-025-037-045-222200-
WEST CENTRAL AND SOUTHWEST VIRGINIA

CITY           SKY/WX    TMP DP  RH WIND       PRES   REMARKS
STAUNTON*      PTSUNNY   59  49  69 SW8       29.92F
WAYNESBORO*    CLOUDY    58  50  73 SW7       29.92S
HOT SPRINGS VA FOG       50  50 100 W9        29.95S VSB 1/2
LYNCHBURG      CLOUDY    54  52  93 SW5       29.96F
DANVILLE       LGT RAIN  56  54  93 W3        29.96S
SOUTH BOSTON*  CLOUDY    56  55  96 CALM      29.96F
MARTINSVILLE   LGT RAIN  54  53  95 CALM      29.98S
ROANOKE        LGT RAIN  55  51  86 CALM      29.96F
BLACKSBURG     RAIN      51  50  98 CALM      29.98F
DUBLIN*        RAIN      54  53  96 CALM      29.96F
MARION*        LGT RAIN  53  52  97 CALM      29.97F
HILLSVILLE*    LGT RAIN  53  53 100 CALM      29.95F
RICHLANDS*     DRIZZLE   55  55 100 SE6       29.93F
WISE*          CLOUDY    55  55 100 CALM      29.94S
ABINGDON*      CLOUDY    56  56  97 NE5       29.93S
$$

MDZ021>025-VAZ099-100-222200-
SOUTHERN MARYLAND AND THE DELMARVA PENINSULA

CITY           SKY/WX    TMP DP  RH WIND       PRES   REMARKS
PATUXENT RIVER CLOUDY    59  51  75 S5        29.93F
BAY BRIDGE APT CLOUDY    55  46  71 S7        29.93S
LEONARDTOWN    MOSUNNY   59  48  67 SW5       29.95S
DOVER          MOSUNNY   54  52  94 E3        29.91F
GEORGETOWN     CLOUDY    61  50  67 SW10      29.93F
EASTON         SUNNY     59  46  63 SW7       29.97S
CAMBRIDGE      NOT AVBL
SALISBURY      CLOUDY    60  51  72 SW9       29.94S
OCEAN CITY     CLOUDY    56  48  74 S6        29.94F
WALLOPS ISLAND CLOUDY    54  49  83 S6        29.96F
ACCOMACK*      DRIZZLE   60  52  74 SW7       29.97R
$$

NCZ012>017-030>032-222200-
NORTH CENTRAL AND EASTERN NORTH CAROLINA

CITY           SKY/WX    TMP DP  RH WIND       PRES   REMARKS
ROANOKE RAPIDS MOCLDY    63  52  67 NE5       29.95S
RALEIGH        CLOUDY    70  49  47 S3        29.93F
ELIZABETH CITY CLOUDY    64  49  57 SE10      29.96F
AHOSKIE*       NOT AVBL
EDENTON*       CLOUDY    68  51  55 SE6       29.96S
CURRITUCK*     CLOUDY    67  49  52 SE6       29.96F
KILL DEVIL HLS NOT AVBL
MANTEO         MOSUNNY   65  51  59 S9        29.97S
CAPE HATTERAS  MOSUNNY   70  54  56 S7        29.96F
TARBORO*       NOT AVBL
GOLDSBORO      PTSUNNY   72  51  48 SE8       29.91S
WASHINGTON     MOSUNNY   70  51  50 SE8       29.94S
GREENVILLE     CLOUDY    72  46  40 CALM      29.95S
NEW BERN       CLOUDY    70  52  52 S10       29.95S
WILMINGTON     MOSUNNY   69  54  58 SE12      29.93S
$$

VAZ048-222200-
ELSEWHERE

CITY           SKY/WX    TMP DP  RH WIND       PRES   REMARKS
HARRISBURG PA  PTSUNNY   60  42  51 S5        29.88F
BALTIMORE      CLOUDY    61  46  57 E7        29.90F
ANNAPOLIS      CLOUDY    52  47  83 SE10      29.92F
ANDREWS AFB    MOSUNNY   62  47  58 S9        29.91S
PHILADELPHIA   PTSUNNY   58  42  55 SW6       29.92S
GREENSBORO     CLOUDY    59  56  89 N3        29.94S
ROCKY MOUNT    CLOUDY    70  50  49 CALM      29.93F
$$

VAZ100-222200-
MARINE

STATION/POSITION TIME  TEMP    WIND        PRES    WAVE   SWELL
                       AIR SEA DIR/SP/G            HT/PER HT/PER
                 (UTC) (F)     (DEG/KT/KT) (MB)    (FT/S) (FT/S)
CAPE MAY NJ      2048   51 43  160/  5/  6 1013.1F
LEWES DE         2048   61 43  250/ 10/ 15 1013.1F
OCEAN-CITY-INLET 2048   48 44  210/ 10/ 12 1014.4F
WACHAPREAGUE VA  2048   55 50  210/  5/  7 1014.7S
THOMAS POINT MD  2100   48 43  170/ 11/ 12   N/A
GOOSES REEF MD   2100   46 44  170/ 10/ 12 1014.1    1/ 2
COVE POINT MD    2018   47     180/  9/ 10 1014.3
SOLOMONS ISLAND  2042   52 44  130/  3/  4   N/A
BISHOPS HEAD MD  2048   49 48  170/  8/  8 1014.2F
PINEY POINT MD   2048          130/  4/  5   N/A
POTOMAC MD       2100   47 45  150/  4/  6 1013.1    0
CAMBRIDGE MD     2048   57 42  180/  5/  9 1013.1S
LEWISETTA VA     2042   59 46  230/  9/ 10 1013.5F
RAPPAHANNOCK LGT 2048          210/  8/  8 1015.4R
YORK RVR RNG VA  2018   59     280/  6/  6 1014.0
YORKTOWN VA      2042   58 47  340/  3/  3 1014.4S
JAMESTOWN VA     2100   55 51     CALM       N/A     0
DOMINION TERM VA 2042   59     340/  7/  8 1014.6F
KIPTOPEKE VA     2042      47  190/  2/  3   N/A
CHES BAY BRIDGE  2042   57 47   50/  3/  5 1014.5R
CAPE HENRY VA    2042   62      90/  4/  5   N/A
WILLOUBY STN VA  2042   59     330/  6/  6 1015.4S
S CRANEY ISL VA  2042   59     320/  5/  7 1014.3S
CAPE HENRY BUOY  2042      49                N/A     3/ 8   2/11
OFFSHORE WE BUOY 2051      48                N/A     3/ 8   2/11
64NM E OF VA BCH 2050   58 56  160/  4/  6 1015.1R   4/ 9   3/ 9
DUCK PIER NC     2018   55 48  140/  5/  8 1014.3
44100 DUCK FRF   2035      48                N/A     3/10   2/11
44056 DUCK FRF   2030      51                N/A     3/ 9
OREGON INLET NC  2042   58 52  100/  6/  7 1015.0S
HATTERAS NC      2042   67 59  160/  7/  8 1014.4F
DIAMOND SHLS NC  2050   68 75  140/ 12/ 14 1014.6F   3/10   3/10
CAPE LOOKOUT NC  2100   66     150/  6/  6 1013.9F
$$




USA.gov is the U.S. government's official web portal to all federal, state and local government web resources and services.